Time+07,TemperatureF,Dew PointF,Humidity,Sea Level PressureIn,VisibilityMPH,Wind Direction,Wind SpeedMPH,Gust SpeedMPH,PrecipitationIn,Events,Conditions,WindDirDegrees,DateUTC
12:00 AM,77.0,75.2,94,29.83,5.0,Calm,Calm,-,N/A,,Mostly Cloudy,0,2012-11-27 17:00:00
12:30 AM,77.0,75.2,94,29.83,5.0,Calm,Calm,-,N/A,,Mostly Cloudy,0,2012-11-27 17:30:00
1:00 AM,79,77,92,29.80,5,Calm,Calm,,,,Mist,,2012-11-27 18:00:00
1:00 AM,77.0,75.2,94,29.83,5.0,Calm,Calm,-,N/A,,Mostly Cloudy,0,2012-11-27 18:00:00
1:30 AM,78.8,75.2,89,29.83,5.0,Calm,Calm,-,N/A,,Mostly Cloudy,0,2012-11-27 18:30:00
2:00 AM,77.0,75.2,94,29.80,5.0,Calm,Calm,-,N/A,,Mostly Cloudy,0,2012-11-27 19:00:00
2:30 AM,77.0,75.2,94,29.80,4.3,Calm,Calm,-,N/A,,Mostly Cloudy,0,2012-11-27 19:30:00
4:00 AM,77.0,75.2,94,29.80,4.3,Calm,Calm,-,N/A,,Mostly Cloudy,0,2012-11-27 21:00:00
4:30 AM,77.0,75.2,94,29.80,4.3,Calm,Calm,-,N/A,,Mostly Cloudy,0,2012-11-27 21:30:00
6:00 AM,77.0,73.4,89,29.83,4.3,Calm,Calm,-,N/A,,Mostly Cloudy,0,2012-11-27 23:00:00
6:30 AM,77.0,73.4,89,29.83,4.3,Calm,Calm,-,N/A,,Mostly Cloudy,0,2012-11-27 23:30:00
7:00 AM,77,76,94,29.78,6,Calm,Calm,,,,Partly Cloudy,,2012-11-28 00:00:00
7:00 AM,77.0,75.2,94,29.83,5.0,Calm,Calm,-,N/A,,Mostly Cloudy,0,2012-11-28 00:00:00
7:30 AM,77.0,75.2,94,29.83,5.0,East,4.6,-,N/A,,Mostly Cloudy,100,2012-11-28 00:30:00
8:00 AM,77.0,75.2,94,29.86,5.0,East,4.6,-,N/A,,Mostly Cloudy,90,2012-11-28 01:00:00
8:30 AM,78.8,75.2,89,29.86,5.6,ESE,5.8,-,N/A,,Scattered Clouds,110,2012-11-28 01:30:00
9:00 AM,78.8,75.2,89,29.89,5.6,ESE,3.5,-,N/A,,Scattered Clouds,120,2012-11-28 02:00:00
9:30 AM,80.6,73.4,79,29.89,5.6,Variable,3.5,-,N/A,,Mostly Cloudy,0,2012-11-28 02:30:00
10:00 AM,82.4,73.4,74,29.86,5.6,East,6.9,-,N/A,,Mostly Cloudy,90,2012-11-28 03:00:00
10:30 AM,82.4,75.2,79,29.83,5.6,East,6.9,-,N/A,,Mostly Cloudy,90,2012-11-28 03:30:00
11:00 AM,86.0,75.2,70,29.86,5.6,ESE,3.5,-,N/A,,Mostly Cloudy,110,2012-11-28 04:00:00
11:30 AM,84.2,73.4,70,29.86,5.6,Variable,4.6,-,N/A,,Mostly Cloudy,0,2012-11-28 04:30:00
12:00 PM,84.2,75.2,74,29.86,5.6,East,4.6,-,N/A,,Mostly Cloudy,80,2012-11-28 05:00:00
12:30 PM,82.4,75.2,79,29.83,5.6,East,6.9,-,N/A,,Mostly Cloudy,80,2012-11-28 05:30:00
1:00 PM,82,78,83,29.78,5,Calm,Calm,,,Rain,Light Rain,,2012-11-28 06:00:00
1:00 PM,84.2,75.2,74,29.80,5.0,NE,5.8,-,N/A,,Scattered Clouds,50,2012-11-28 06:00:00
1:30 PM,78.8,75.2,89,29.80,5.0,East,4.6,-,N/A,,Mostly Cloudy,80,2012-11-28 06:30:00
2:00 PM,82.4,77.0,84,29.77,5.0,NW,4.6,-,N/A,,Scattered Clouds,320,2012-11-28 07:00:00
2:30 PM,84.2,77.0,79,29.77,5.6,WNW,4.6,-,N/A,,Scattered Clouds,290,2012-11-28 07:30:00
3:00 PM,86.0,75.2,70,29.74,5.6,West,6.9,-,N/A,,Scattered Clouds,270,2012-11-28 08:00:00
3:30 PM,86.0,75.2,70,29.74,5.6,West,9.2,-,N/A,,Scattered Clouds,260,2012-11-28 08:30:00
4:00 PM,87.8,73.4,62,29.74,6.2,West,9.2,-,N/A,,Scattered Clouds,260,2012-11-28 09:00:00
4:30 PM,86.0,71.6,62,29.74,6.2,West,5.8,-,N/A,,Mostly Cloudy,270,2012-11-28 09:30:00
5:00 PM,86.0,73.4,66,29.77,6.2,WSW,5.8,-,N/A,,Mostly Cloudy,240,2012-11-28 10:00:00
5:30 PM,84.2,73.4,70,29.77,6.2,WSW,4.6,-,N/A,,Mostly Cloudy,250,2012-11-28 10:30:00
6:00 PM,82.4,73.4,74,29.77,5.6,NW,3.5,-,N/A,,Mostly Cloudy,320,2012-11-28 11:00:00
6:30 PM,78.8,75.2,89,29.80,5.6,Calm,Calm,-,N/A,,Mostly Cloudy,0,2012-11-28 11:30:00
7:00 PM,82,76,77,29.75,6,Calm,Calm,,,,Partly Cloudy,,2012-11-28 12:00:00
7:00 PM,78.8,75.2,89,29.80,5.6,Calm,Calm,-,N/A,,Mostly Cloudy,0,2012-11-28 12:00:00
7:30 PM,77.0,75.2,94,29.83,5.6,Calm,Calm,-,N/A,,Mostly Cloudy,0,2012-11-28 12:30:00
8:00 PM,78.8,75.2,89,29.83,5.6,Calm,Calm,-,N/A,,Mostly Cloudy,0,2012-11-28 13:00:00
8:30 PM,78.8,75.2,89,29.83,5.6,ENE,9.2,-,N/A,,Mostly Cloudy,60,2012-11-28 13:30:00
9:00 PM,78.8,73.4,83,29.83,5.6,East,5.8,-,N/A,,Mostly Cloudy,90,2012-11-28 14:00:00
9:30 PM,77.0,73.4,89,29.83,5.0,East,9.2,-,N/A,,Mostly Cloudy,90,2012-11-28 14:30:00
10:00 PM,77.0,71.6,83,29.83,6.2,East,6.9,-,N/A,,Mostly Cloudy,90,2012-11-28 15:00:00
10:30 PM,77.0,71.6,83,29.83,6.2,East,3.5,-,N/A,,Mostly Cloudy,100,2012-11-28 15:30:00
11:00 PM,77.0,71.6,83,29.83,6.2,East,3.5,-,N/A,,Mostly Cloudy,90,2012-11-28 16:00:00
11:30 PM,75.2,73.4,94,29.83,6.2,Calm,Calm,-,N/A,,Mostly Cloudy,0,2012-11-28 16:30:00